TimeCDT,TemperatureF,Dew PointF,Humidity,Sea Level PressureIn,VisibilityMPH,Wind Direction,Wind SpeedMPH,Gust SpeedMPH,PrecipitationIn,Events,Conditions,WindDirDegrees,DateUTC
12:54 AM,63.0,60.1,90,29.96,9.0,Calm,Calm,-,N/A,,Clear,0,2013-08-20 05:54:00
1:54 AM,63.0,61.0,93,29.96,7.0,Calm,Calm,-,N/A,,Clear,0,2013-08-20 06:54:00
2:54 AM,61.0,59.0,93,29.96,5.0,Calm,Calm,-,N/A,,Clear,0,2013-08-20 07:54:00
3:28 AM,60.8,59.0,94,29.97,1.8,Calm,Calm,-,N/A,,Clear,0,2013-08-20 08:28:00
3:38 AM,60.8,59.0,94,29.97,3.0,Calm,Calm,-,N/A,,Clear,0,2013-08-20 08:38:00
3:54 AM,61.0,59.0,93,29.96,5.0,Calm,Calm,-,N/A,,Clear,0,2013-08-20 08:54:00
4:54 AM,61.0,59.0,93,29.96,6.0,Calm,Calm,-,N/A,,Clear,0,2013-08-20 09:54:00
5:54 AM,60.1,59.0,96,29.98,4.0,Calm,Calm,-,N/A,,Clear,0,2013-08-20 10:54:00
6:07 AM,60.8,59.0,94,29.99,2.5,Calm,Calm,-,N/A,,Clear,0,2013-08-20 11:07:00
6:45 AM,60.8,59.0,94,30.00,3.0,Calm,Calm,-,N/A,,Partly Cloudy,0,2013-08-20 11:45:00
6:54 AM,63.0,61.0,93,30.00,5.0,Calm,Calm,-,N/A,,Scattered Clouds,0,2013-08-20 11:54:00
7:54 AM,70.0,63.0,78,30.00,10.0,Calm,Calm,-,N/A,,Clear,0,2013-08-20 12:54:00
8:54 AM,75.0,63.0,66,30.00,10.0,SW,6.9,-,N/A,,Clear,230,2013-08-20 13:54:00
9:54 AM,78.1,64.0,62,29.99,10.0,WSW,5.8,-,N/A,,Clear,240,2013-08-20 14:54:00
10:54 AM,82.9,64.9,54,29.98,10.0,SW,8.1,-,N/A,,Clear,220,2013-08-20 15:54:00
11:54 AM,84.9,63.0,48,29.97,10.0,SW,10.4,18.4,N/A,,Clear,230,2013-08-20 16:54:00
12:54 PM,87.1,62.1,43,29.96,10.0,SW,9.2,17.3,N/A,,Partly Cloudy,220,2013-08-20 17:54:00
1:54 PM,88.0,63.0,43,29.95,10.0,SSW,15.0,23.0,N/A,,Scattered Clouds,200,2013-08-20 18:54:00
2:54 PM,88.0,63.0,43,29.94,10.0,SSW,13.8,21.9,N/A,,Mostly Cloudy,210,2013-08-20 19:54:00
3:54 PM,88.0,63.0,43,29.93,10.0,SSW,10.4,19.6,N/A,,Mostly Cloudy,200,2013-08-20 20:54:00
4:54 PM,87.1,64.0,46,29.93,10.0,SSW,9.2,-,N/A,,Partly Cloudy,200,2013-08-20 21:54:00
5:54 PM,84.9,64.0,49,29.92,10.0,South,12.7,-,N/A,,Clear,190,2013-08-20 22:54:00
6:54 PM,82.9,64.9,54,29.92,10.0,South,9.2,-,N/A,,Clear,190,2013-08-20 23:54:00
7:54 PM,79.0,66.0,64,29.92,10.0,South,6.9,-,N/A,,Clear,180,2013-08-21 00:54:00
8:54 PM,77.0,64.9,66,29.93,10.0,South,8.1,-,N/A,,Clear,180,2013-08-21 01:54:00
10:54 PM,73.0,64.9,76,29.94,10.0,South,6.9,-,N/A,,Clear,180,2013-08-21 03:54:00
11:54 PM,72.0,64.0,76,29.93,10.0,South,5.8,-,N/A,,Clear,180,2013-08-21 04:54:00